Location: Unspecified
(0.0000°N, 0.0000°E)
Time: 18:49:29
(UTC+00:00)

Envisat - Pass Details

Date: 16 December 2017
Orbit: 764 x 766 km, 98.2° (Epoch: 10 December)

Event Time Altitude Azimuth Distance (km) Brightness Sun altitude
Rises 20:03:47 0° 169° (SSE) 3,230 6.4 -29.1°
Reaches altitude 10° 20:06:05 10° 169° (SSE) 2,301 5.6 -29.6°
Enters shadow 20:08:23 28° 169° (S) 1,420 4.4 -30.1°
